| time (UTC) | temp C | wind direction | speed KPH | gust KPH | rain 1hr cm | rain 24hr cm | rain mn cm | humidity % | barometer mb |
| 20260504205947 | 21 | 240 | 0.0 | 0.0 | 0.00 | 0.00 | 0.00 | 99 | 979.1 |
| 20260504205445 | 21 | 241 | 0.0 | 0.0 | 0.00 | 0.00 | 0.00 | 99 | 979.1 |
| 20260504204943 | 21 | 327 | 0.0 | 0.0 | 0.00 | 0.00 | 0.00 | 99 | 979.0 |
| 20260504204441 | 22 | 230 | 0.0 | 0.0 | 0.00 | 0.00 | 0.00 | 99 | 979.1 |
| 20260504203940 | 22 | 247 | 0.0 | 0.0 | 0.00 | 0.00 | 0.00 | 99 | 979.2 |
| 20260504203437 | 22 | 237 | 0.0 | 0.0 | 0.00 | 0.00 | 0.00 | 99 | 979.2 |
| 20260504202933 | 22 | 228 | 0.0 | 0.0 | 0.00 | 0.00 | 0.00 | 99 | 979.2 |
| 20260504202430 | 22 | 218 | 0.0 | 0.0 | 0.00 | 0.00 | 0.00 | 99 | 979.2 |
| 20260504201926 | 22 | 182 | 0.0 | 0.0 | 0.00 | 0.00 | 0.00 | 99 | 978.9 |
| 20260504201424 | 22 | 165 | 0.0 | 1.6 | 0.00 | 0.00 | 0.00 | 99 | 978.5 |
| 20260504200921 | 22 | 64 | 4.8 | 4.8 | 0.00 | 0.00 | 0.00 | 99 | 978.5 |
| 20260504200418 | 22 | 116 | 1.6 | 4.8 | 0.00 | 0.00 | 0.00 | 99 | 978.3 |
| 20260504195915 | 22 | 189 | 0.0 | 0.0 | 0.00 | 0.00 | 0.00 | 99 | 978.4 |
| 20260504195410 | 22 | 151 | 0.0 | 1.6 | 0.00 | 0.00 | 0.00 | 99 | 978.5 |
| 20260504194907 | 22 | 163 | 0.0 | 1.6 | 0.00 | 0.00 | 0.00 | 99 | 978.4 |
| 20260504194403 | 22 | 311 | 0.0 | 0.0 | 0.00 | 0.00 | 0.00 | 99 | 978.7 |
| 20260504193859 | 22 | 266 | 0.0 | 0.0 | 0.00 | 0.00 | 0.00 | 99 | 978.6 |
| 20260504193356 | 22 | 195 | 0.0 | 0.0 | 0.00 | 0.00 | 0.00 | 99 | 978.7 |
| 20260504192855 | 22 | 106 | 0.0 | 0.0 | 0.00 | 0.00 | 0.00 | 99 | 978.6 |
| 20260504192352 | 22 | 111 | 0.0 | 0.0 | 0.00 | 0.00 | 0.00 | 99 | 979.0 |
| 20260504191850 | 22 | 186 | 0.0 | 0.0 | 0.00 | 0.00 | 0.00 | 99 | 979.0 |
| 20260504191348 | 22 | 243 | 0.0 | 0.0 | 0.00 | 0.00 | 0.00 | 99 | 979.0 |
| 20260504190843 | 22 | 202 | 0.0 | 0.0 | 0.00 | 0.00 | 0.00 | 99 | 979.1 |
| 20260504190339 | 22 | 202 | 0.0 | 0.0 | 0.00 | 0.00 | 0.00 | 98 | 979.2 |
| 20260504185836 | 22 | 190 | 0.0 | 0.0 | 0.00 | 0.00 | 0.00 | 98 | 978.7 |
| 20260504185333 | 22 | 188 | 0.0 | 0.0 | 0.00 | 0.00 | 0.00 | 98 | 978.6 |
| 20260504184829 | 22 | 190 | 0.0 | 0.0 | 0.00 | 0.00 | 0.00 | 98 | 978.7 |
| 20260504184326 | 22 | 188 | 0.0 | 0.0 | 0.00 | 0.00 | 0.00 | 98 | 978.8 |
| 20260504183821 | 22 | 188 | 0.0 | 0.0 | 0.00 | 0.00 | 0.00 | 98 | 978.9 |
| 20260504183319 | 22 | 190 | 0.0 | 0.0 | 0.00 | 0.00 | 0.00 | 98 | 978.8 |
| 20260504182817 | 22 | 176 | 0.0 | 0.0 | 0.00 | 0.00 | 0.00 | 98 | 978.9 |
| 20260504182314 | 22 | 177 | 0.0 | 0.0 | 0.00 | 0.00 | 0.00 | 98 | 978.7 |
| 20260504181811 | 22 | 178 | 0.0 | 0.0 | 0.00 | 0.00 | 0.00 | 97 | 978.7 |
| 20260504181308 | 22 | 176 | 0.0 | 1.6 | 0.00 | 0.00 | 0.00 | 97 | 978.9 |
| 20260504180807 | 22 | 153 | 0.0 | 8.0 | 0.00 | 0.00 | 0.00 | 97 | 978.7 |
| 20260504180305 | 22 | 149 | 0.0 | 1.6 | 0.00 | 0.00 | 0.00 | 97 | 978.9 |
| 20260504175803 | 22 | 136 | 0.0 | 1.6 | 0.00 | 0.00 | 0.00 | 96 | 978.7 |
| 20260504175259 | 22 | 152 | 1.6 | 4.8 | 0.00 | 0.00 | 0.00 | 96 | 978.6 |
| 20260504174757 | 22 | 69 | 1.6 | 4.8 | 0.00 | 0.00 | 0.00 | 96 | 978.9 |
| 20260504174255 | 22 | 164 | 0.0 | 1.6 | 0.00 | 0.00 | 0.00 | 95 | 978.6 |
| 20260504173751 | 23 | 179 | 1.6 | 1.6 | 0.00 | 0.00 | 0.00 | 93 | 978.6 |
| 20260504173248 | 23 | 194 | 0.0 | 1.6 | 0.00 | 0.00 | 0.00 | 93 | 978.9 |
| 20260504172745 | 23 | 233 | 0.0 | 0.0 | 0.00 | 0.00 | 0.00 | 92 | 978.9 |
| 20260504172242 | 24 | 267 | 0.0 | 1.6 | 0.00 | 0.00 | 0.00 | 91 | 978.9 |
| 20260504171738 | 24 | 190 | 0.0 | 1.6 | 0.00 | 0.00 | 0.00 | 89 | 979.0 |
| 20260504171235 | 25 | 134 | 1.6 | 4.8 | 0.00 | 0.00 | 0.00 | 87 | 979.0 |
| 20260504170732 | 25 | 193 | 0.0 | 0.0 | 0.00 | 0.00 | 0.00 | 86 | 978.8 |
| 20260504170229 | 25 | 151 | 3.2 | 3.2 | 0.00 | 0.00 | 0.00 | 86 | 979.0 |
| 20260504160147 | 28 | 181 | 0.0 | 0.0 | 0.00 | 0.00 | 0.00 | 72 | 977.8 |
| 20260504151115 | 27 | 247 | 1.6 | 1.6 | 0.00 | 0.00 | 0.00 | 74 | 976.9 |
| 20260504150613 | 27 | 233 | 0.0 | 0.0 | 0.00 | 0.00 | 0.00 | 75 | 976.9 |
| 20260504150109 | 27 | 237 | 0.0 | 1.6 | 0.00 | 0.00 | 0.00 | 74 | 976.8 |
| 20260504141038 | 28 | 234 | 0.0 | 0.0 | 0.00 | 0.00 | 0.00 | 72 | 976.1 |
| 20260504140534 | 28 | 238 | 0.0 | 0.0 | 0.00 | 0.00 | 0.00 | 71 | 976.2 |
| 20260504130459 | 28 | 238 | 0.0 | 0.0 | 0.00 | 0.00 | 0.00 | 69 | 975.3 |
| 20260504110346 | 33 | 238 | 0.0 | 0.0 | 0.00 | 0.00 | 0.00 | 50 | 973.7 |
| 20260504100303 | 33 | 222 | 0.0 | 0.0 | 0.00 | 0.00 | 0.00 | 52 | 973.8 |
| 20260504081656 | 33 | 235 | 0.0 | 1.6 | 0.00 | 0.00 | 0.00 | 50 | 974.9 |
| 20260504081152 | 34 | 28 | 1.6 | 3.2 | 0.00 | 0.00 | 0.00 | 51 | 974.7 |
| 20260504080649 | 34 | 244 | 1.6 | 1.6 | 0.00 | 0.00 | 0.00 | 51 | 974.7 |
| 20260504080145 | 34 | 32 | 1.6 | 4.8 | 0.00 | 0.00 | 0.00 | 51 | 975.0 |
| 20260504070114 | 34 | 246 | 0.0 | 0.0 | 0.00 | 0.00 | 0.00 | 54 | 976.3 |
| 20260504050502 | 31 | 350 | 1.6 | 4.8 | 0.00 | 0.00 | 0.00 | 61 | 978.6 |
| 20260504045959 | 32 | 283 | 0.0 | 1.6 | 0.00 | 0.00 | 0.00 | 62 | 978.5 |
| 20260504045455 | 32 | 69 | 4.8 | 8.0 | 0.00 | 0.00 | 0.00 | 62 | 978.6 |
| 20260504044951 | 32 | 332 | 1.6 | 1.6 | 0.00 | 0.00 | 0.00 | 62 | 978.7 |
| 20260504044449 | 32 | 153 | 3.2 | 4.8 | 0.00 | 0.00 | 0.00 | 63 | 978.6 |
| 20260504043946 | 32 | 205 | 0.0 | 1.6 | 0.00 | 0.00 | 0.00 | 65 | 978.9 |
| 20260504043443 | 31 | 221 | 0.0 | 0.0 | 0.00 | 0.00 | 0.00 | 65 | 978.9 |
| 20260504042940 | 31 | 162 | 0.0 | 3.2 | 0.00 | 0.00 | 0.00 | 66 | 978.9 |
| 20260504042436 | 31 | 42 | 3.2 | 4.8 | 0.00 | 0.00 | 0.00 | 65 | 979.1 |
| 20260504041933 | 31 | 320 | 0.0 | 3.2 | 0.00 | 0.00 | 0.00 | 66 | 979.0 |
| 20260504041429 | 30 | 169 | 0.0 | 11.3 | 0.00 | 0.00 | 0.00 | 67 | 979.1 |
| 20260504040925 | 31 | 312 | 1.6 | 1.6 | 0.00 | 0.00 | 0.00 | 67 | 978.9 |
| 20260504040424 | 31 | 260 | 0.0 | 1.6 | 0.00 | 0.00 | 0.00 | 70 | 978.9 |
| 20260504035919 | 30 | 98 | 3.2 | 4.8 | 0.00 | 0.00 | 0.00 | 70 | 979.1 |
| 20260504035417 | 30 | 77 | 4.8 | 9.7 | 0.00 | 0.00 | 0.00 | 69 | 979.1 |
| 20260504034914 | 30 | 137 | 0.0 | 0.0 | 0.00 | 0.00 | 0.00 | 71 | 979.2 |
| 20260504034412 | 30 | 358 | 0.0 | 8.0 | 0.00 | 0.00 | 0.00 | 74 | 979.2 |
| 20260504033908 | 30 | 5 | 3.2 | 4.8 | 0.00 | 0.00 | 0.00 | 71 | 979.5 |
| 20260504033406 | 29 | 94 | 1.6 | 4.8 | 0.00 | 0.00 | 0.00 | 73 | 979.5 |
| 20260504032902 | 29 | 26 | 4.8 | 8.0 | 0.00 | 0.00 | 0.00 | 72 | 979.4 |
| 20260504032359 | 29 | 47 | 1.6 | 1.6 | 0.00 | 0.00 | 0.00 | 72 | 979.3 |
| 20260504031855 | 28 | 268 | 0.0 | 3.2 | 0.00 | 0.00 | 0.00 | 73 | 979.5 |
| 20260504031353 | 29 | 37 | 1.6 | 4.8 | 0.00 | 0.00 | 0.00 | 72 | 979.5 |
| 20260504030849 | 28 | 66 | 3.2 | 8.0 | 0.00 | 0.00 | 0.00 | 73 | 979.4 |
| 20260504030347 | 30 | 80 | 0.0 | 1.6 | 0.00 | 0.00 | 0.00 | 72 | 979.6 |
| 20260504025842 | 30 | 175 | 0.0 | 0.0 | 0.00 | 0.00 | 0.00 | 73 | 979.4 |
| 20260504025340 | 29 | 212 | 0.0 | 1.6 | 0.00 | 0.00 | 0.00 | 74 | 979.6 |
| 20260504024836 | 28 | 165 | 0.0 | 9.7 | 0.00 | 0.00 | 0.00 | 74 | 979.7 |
| 20260504024333 | 29 | 204 | 0.0 | 1.6 | 0.00 | 0.00 | 0.00 | 75 | 979.7 |
| 20260504023829 | 29 | 62 | 4.8 | 4.8 | 0.00 | 0.00 | 0.00 | 72 | 979.8 |
| 20260504023326 | 29 | 155 | 0.0 | 3.2 | 0.00 | 0.00 | 0.00 | 74 | 979.6 |
| 20260504022822 | 29 | 183 | 0.0 | 1.6 | 0.00 | 0.00 | 0.00 | 74 | 979.8 |
| 20260504022319 | 29 | 210 | 0.0 | 0.0 | 0.00 | 0.00 | 0.00 | 76 | 979.5 |
| 20260504021816 | 28 | 328 | 1.6 | 3.2 | 0.00 | 0.00 | 0.00 | 75 | 979.4 |
| 20260504021314 | 28 | 222 | 0.0 | 0.0 | 0.00 | 0.00 | 0.00 | 77 | 979.4 |
| 20260504020810 | 27 | 92 | 1.6 | 3.2 | 0.00 | 0.00 | 0.00 | 79 | 979.6 |
| 20260504020307 | 27 | 23 | 0.0 | 0.0 | 0.00 | 0.00 | 0.00 | 81 | 979.3 |
| 20260504015802 | 27 | 258 | 0.0 | 1.6 | 0.00 | 0.00 | 0.00 | 80 | 979.5 |
| 20260504015259 | 27 | 311 | 0.0 | 1.6 | 0.00 | 0.00 | 0.00 | 79 | 979.5 |
| 20260504014755 | 27 | 258 | 1.6 | 1.6 | 0.00 | 0.00 | 0.00 | 80 | 979.3 |
| 20260504014251 | 26 | 251 | 0.0 | 0.0 | 0.00 | 0.00 | 0.00 | 82 | 979.1 |
| 20260504013749 | 26 | 254 | 0.0 | 0.0 | 0.00 | 0.00 | 0.00 | 80 | 979.1 |
| 20260504013247 | 27 | 268 | 1.6 | 1.6 | 0.00 | 0.00 | 0.00 | 82 | 978.9 |
| 20260504012743 | 26 | 297 | 0.0 | 0.0 | 0.00 | 0.00 | 0.00 | 85 | 978.8 |
| 20260504012241 | 26 | 300 | 0.0 | 1.6 | 0.00 | 0.00 | 0.00 | 84 | 979.0 |
| 20260504011737 | 26 | 219 | 0.0 | 1.6 | 0.00 | 0.00 | 0.00 | 84 | 979.1 |
| 20260504011235 | 26 | 150 | 0.0 | 0.0 | 0.00 | 0.00 | 0.00 | 83 | 979.1 |
| 20260504010731 | 25 | 144 | 0.0 | 0.0 | 0.00 | 0.00 | 0.00 | 86 | 979.0 |
| 20260504010226 | 25 | 227 | 0.0 | 0.0 | 0.00 | 0.00 | 0.00 | 89 | 979.1 |
| 20260504005723 | 24 | 225 | 0.0 | 1.6 | 0.00 | 0.00 | 0.00 | 90 | 978.8 |
| 20260504005220 | 23 | 217 | 1.6 | 1.6 | 0.00 | 0.00 | 0.00 | 93 | 978.7 |
| 20260504004718 | 23 | 219 | 0.0 | 1.6 | 0.00 | 0.00 | 0.00 | 92 | 978.7 |
| 20260504004215 | 23 | 211 | 0.0 | 0.0 | 0.00 | 0.00 | 0.00 | 94 | 978.6 |
| 20260504003712 | 22 | 219 | 0.0 | 0.0 | 0.00 | 0.00 | 0.00 | 94 | 978.6 |
| 20260504003208 | 22 | 219 | 0.0 | 0.0 | 0.00 | 0.00 | 0.00 | 94 | 978.6 |
| 20260504002705 | 22 | 219 | 0.0 | 0.0 | 0.00 | 0.00 | 0.00 | 95 | 978.5 |
| 20260504002202 | 22 | 219 | 0.0 | 0.0 | 0.00 | 0.00 | 0.00 | 95 | 978.3 |
| 20260504001700 | 22 | 219 | 0.0 | 0.0 | 0.00 | 0.00 | 0.00 | 96 | 978.2 |
| 20260504001157 | 22 | 219 | 0.0 | 0.0 | 0.00 | 0.00 | 0.00 | 97 | 978.4 |
| 20260504000653 | 21 | 219 | 0.0 | 0.0 | 0.00 | 0.00 | 0.00 | 98 | 978.4 |
| 20260504000151 | 21 | 212 | 0.0 | 0.0 | 0.00 | 0.00 | 0.00 | 98 | 978.1 |
| 20260503235649 | 21 | 212 | 0.0 | 0.0 | 0.00 | 0.00 | 0.00 | 99 | 978.1 |
| 20260503235145 | 21 | 212 | 0.0 | 0.0 | 0.00 | 0.00 | 0.00 | 99 | 978.3 |
| 20260503234643 | 21 | 212 | 0.0 | 0.0 | 0.00 | 0.00 | 0.00 | 99 | 978.4 |
| 20260503234141 | 21 | 212 | 0.0 | 0.0 | 0.00 | 0.00 | 0.00 | 99 | 978.2 |
| 20260503233638 | 21 | 213 | 0.0 | 0.0 | 0.00 | 0.00 | 0.00 | 99 | 978.0 |
| 20260503233133 | 21 | 213 | 0.0 | 0.0 | 0.00 | 0.00 | 0.00 | 99 | 978.0 |
| 20260503232630 | 21 | 213 | 0.0 | 0.0 | 0.00 | 0.00 | 0.00 | 99 | 978.0 |
| 20260503232128 | 21 | 213 | 0.0 | 0.0 | 0.00 | 0.00 | 0.00 | 99 | 978.1 |
| 20260503231626 | 21 | 213 | 0.0 | 0.0 | 0.00 | 0.00 | 0.00 | 99 | 978.1 |
| 20260503231122 | 20 | 213 | 0.0 | 0.0 | 0.00 | 0.00 | 0.00 | 99 | 977.9 |
| 20260503230619 | 20 | 213 | 0.0 | 0.0 | 0.00 | 0.00 | 0.00 | 99 | 977.9 |
| 20260503230116 | 20 | 213 | 0.0 | 0.0 | 0.00 | 0.00 | 0.00 | 99 | 977.8 |
| 20260503225614 | 20 | 213 | 0.0 | 0.0 | 0.00 | 0.00 | 0.00 | 99 | 977.7 |
| 20260503225113 | 20 | 213 | 0.0 | 0.0 | 0.00 | 0.00 | 0.00 | 99 | 977.8 |
| 20260503224611 | 20 | 213 | 0.0 | 0.0 | 0.00 | 0.00 | 0.00 | 99 | 977.8 |
| 20260503224109 | 20 | 213 | 0.0 | 0.0 | 0.00 | 0.00 | 0.00 | 99 | 977.8 |
| 20260503223607 | 20 | 213 | 0.0 | 0.0 | 0.00 | 0.00 | 0.00 | 99 | 977.5 |
| 20260503223102 | 20 | 213 | 0.0 | 0.0 | 0.00 | 0.00 | 0.00 | 99 | 977.3 |
| 20260503222600 | 20 | 213 | 0.0 | 0.0 | 0.00 | 0.00 | 0.00 | 99 | 977.3 |
| 20260503222058 | 20 | 213 | 0.0 | 0.0 | 0.00 | 0.00 | 0.00 | 99 | 977.2 |
| 20260503221556 | 20 | 214 | 0.0 | 0.0 | 0.00 | 0.00 | 0.00 | 99 | 977.6 |
| 20260503221053 | 20 | 211 | 0.0 | 0.0 | 0.00 | 0.00 | 0.00 | 99 | 977.3 |
| 20260503220549 | 20 | 203 | 0.0 | 0.0 | 0.00 | 0.00 | 0.00 | 99 | 976.9 |
| 20260503220047 | 20 | 193 | 0.0 | 0.0 | 0.00 | 0.00 | 0.00 | 99 | 977.1 |
| 20260503215543 | 20 | 196 | 0.0 | 0.0 | 0.00 | 0.00 | 0.00 | 99 | 976.8 |
| 20260503215040 | 20 | 280 | 0.0 | 0.0 | 0.00 | 0.00 | 0.00 | 99 | 976.9 |
| 20260503214538 | 20 | 242 | 0.0 | 0.0 | 0.00 | 0.00 | 0.00 | 99 | 976.6 |
| 20260503214035 | 20 | 242 | 0.0 | 0.0 | 0.00 | 0.00 | 0.00 | 99 | 976.6 |
| 20260503213533 | 20 | 247 | 0.0 | 0.0 | 0.00 | 0.00 | 0.00 | 99 | 976.4 |
| 20260503213030 | 20 | 257 | 0.0 | 0.0 | 0.00 | 0.00 | 0.00 | 99 | 976.5 |
| 20260503212527 | 20 | 234 | 0.0 | 0.0 | 0.00 | 0.00 | 0.00 | 99 | 976.5 |
| 20260503212025 | 20 | 252 | 0.0 | 0.0 | 0.00 | 0.00 | 0.00 | 99 | 976.7 |
| 20260503211521 | 21 | 233 | 0.0 | 0.0 | 0.00 | 0.00 | 0.00 | 99 | 976.4 |
| 20260503211016 | 21 | 233 | 0.0 | 0.0 | 0.00 | 0.00 | 0.00 | 99 | 976.2 |
| 20260503210514 | 21 | 234 | 0.0 | 0.0 | 0.00 | 0.00 | 0.00 | 99 | 976.5 |